Regional Weather Roundup
Issued by NWS State College, PA

Home | Current Version | Previous Version | Graphics & Text | Print | Product List | Glossary Off
Versions: 1 2 3 4 5 6 7 8 9 10 11 12 13 14 15 16 17 18 19 20 21 22 23 24 25 26 27 28 29 30 31 32 33 34 35 36 37 38 39 40 41 42 43 44 45 46 47 48 49 50

000
ASUS41 KCTP 260103
RWRCTP

REGIONAL WEATHER ROUNDUP
NATIONAL WEATHER SERVICE STATE COLLEGE PA
800 PM EST THU DEC 25 2014

Note: "fair" indicates few or no clouds below 12,000 feet with no
significant weather and/or obstructions to visibility.

* = STATION THAT DOES NOT REPORT PRECIPITATION /E.G. RAIN...SNOW...ETC/
    THUNDER OR FOG.

PAZ002>004-007>009-013>016-020>023-029>032-260200-
WESTERN PENNSYLVANIA

CITY           SKY/WX    TMP DP  RH WIND       PRES   REMARKS
ERIE           CLOUDY    39  29  67 SW8       30.14R
MEADVILLE      CLOUDY    36  27  69 SW7       30.12R
FRANKLIN*      CLOUDY    36  27  69 SW7       30.15R
NEW CASTLE       N/A     37  29  73 SW5       30.19R
BEAVER COUNTY  NOT AVBL
BUTLER*        CLOUDY    37  27  65 SW10      30.19R
PITTSBURGH INT MOCLDY    38  29  70 SW5       30.18R
PITTSBURGH     CLOUDY    38  26  62 W7        30.18R
INDIANA*       CLOUDY    37  28  70 W10G18    30.21R
LATROBE        MOCLDY    37  28  70 W9        30.21R
WASHINGTON CO* NOT AVBL
$$

PAZ004>006-010>012-017>019-024>028-033>037-041-042-045-046-049>053-260200-
CENTRAL PENNSYLVANIA

CITY           SKY/WX    TMP DP  RH WIND       PRES   REMARKS
BRADFORD       CLOUDY    34  26  72 W6        30.07R
DUBOIS         CLOUDY    35  27  72 W10       30.11R
CLEARFIELD     CLOUDY    37  28  70 W6        30.13R
JOHNSTOWN      CLOUDY    34  26  72 W15G23    30.12R
ALTOONA        CLOUDY    38  29  70 W9        30.16R
STATE COLLEGE  CLOUDY    39  28  65 W9        30.16R
WILLIAMSPORT   CLOUDY    42  30  62 W8        30.11R
SELINSGROVE    CLOUDY    44  29  55 W9G16     30.15R
FT INDIANTOWN  CLOUDY    43  28  56 W9        30.14R
CAPITAL CITY   PTCLDY    44  29  55 W12       30.15R
HARRISBURG     MOCLDY    41  30  65 NW9       30.14R
YORK           CLEAR     40  29  64 NW10      30.14R
$$

PAZ038>040-043-044-047-048-054-055-060>062-067>071-260200-
EASTERN PENNSYLVANIA

CITY           SKY/WX    TMP DP  RH WIND       PRES   REMARKS
SCRANTON       CLOUDY    42  29  59 W18G24    30.06R
MOUNT POCONO   CLOUDY    38  28  67 NW12G21   30.00R
ALLENTOWN      PTCLDY    44  29  55 W8        30.09R
QUAKERTOWN*    NOT AVBL
READING        MOCLDY    44  28  53 W17G25    30.11R
LANCASTER      MOCLDY    43  29  57 NW13      30.12R
COATESVILLE    MOCLDY    45  32  61 NW14G20   30.11R
POTTSTOWN      PTCLDY    43  30  60 W7        30.11R
BLUE BELL      PTCLDY    45  32  61 W5        30.09R
DOYLESTOWN     CLEAR     42  32  67 W13       30.08R
WILLOW GROVE   NOT AVBL
NORTH PHILA    CLEAR     47  28  47 W10       30.12R
PHILADELPHIA   PTCLDY    45  30  55 W8        30.12R
$$


USA.gov is the U.S. government's official web portal to all federal, state and local government web resources and services.